Theta_e
313 313 312 312 312 311 311 310 310 310 310 310 310 310 310 311 311 312 312 313 313 313 312 312 313 314 309 298 295 306 315 313 307 311 307 302 294 291 288 290 293 292 296 299 298 296 296
312 312 312 312 311 311 310 311 310 310 310 309 309 310 310 311 311 311 312 312 313 313 313 312 313 313 304 293 305 306 306 307 304 301 303 300 297 296 292 291 291 294 295 297 297 297 296
312 312 312 311 311 311 311 310 310 310 310 311 310 310 310 310 311 311 311 312 313 313 313 313 313 310 303 298 306 306 306 303 303 303 299 300 302 298 295 295 298 299 294 296 296 297 296
312 312 311 311 311 311 310 310 311 311 311 311 310 310 310 310 311 311 312 312 313 313 313 313 314 309 296 307 306 305 304 304 306 305 303 302 301 298 298 299 298 294 290 286 293 297 298
311 311 311 311 310 310 310 310 310 310 310 309 310 311 310 310 311 311 312 312 314 313 312 312 306 299 292 307 302 307 306 302 303 304 301 305 302 296 297 290 287 290 285 287 292 297 296
311 311 311 311 310 311 309 311 310 310 310 310 310 311 311 311 311 312 312 311 312 312 311 310 308 297 298 299 305 306 306 305 300 299 296 294 293 290 289 287 280 284 285 287 290 294 297
311 311 311 310 310 310 310 310 310 310 310 310 310 311 310 311 312 312 308 302 297 295 299 296 296 297 299 304 307 304 306 302 300 294 287 290 285 283 287 290 292 291 291 291 293 296 292
311 310 310 310 310 309 310 309 310 310 310 310 310 310 311 312 312 311 306 301 302 300 292 299 299 299 302 303 297 301 305 295 293 286 288 285 282 289 293 293 292 291 290 290 295 298 292
311 311 311 309 310 310 309 310 310 310 311 309 310 311 311 312 311 305 302 305 307 302 290 295 299 297 298 300 296 297 300 297 292 288 287 283 286 292 291 291 289 289 289 291 291 296 295
312 311 311 310 310 310 309 309 310 310 310 309 310 311 311 311 305 302 301 305 304 301 282 293 296 301 303 300 294 303 302 298 293 289 289 287 291 290 288 288 290 284 292 294 294 292 284
313 312 311 310 310 309 309 309 309 310 310 310 310 311 311 310 300 299 304 302 301 297 274 295 298 308 303 298 298 298 302 297 290 291 290 285 288 287 286 287 291 287 296 294 294 292 288
313 312 312 311 310 309 309 309 309 309 309 309 310 310 310 305 300 303 304 302 298 282 276 291 298 296 296 297 297 300 299 299 297 292 291 289 295 292 289 291 291 295 292 293 294 290 281
313 313 312 311 310 309 309 308 309 309 309 309 309 310 306 306 300 304 303 297 282 281 293 290 292 296 293 292 294 296 294 292 288 283 282 287 288 293 294 288 291 290 290 284 282 281 279
313 313 312 312 310 309 309 308 308 308 308 308 308 307 307 307 303 305 299 289 282 289 290 296 295 293 289 293 292 292 292 289 290 289 284 281 277 289 294 289 286 288 289 285 279 279 280
314 313 313 312 310 309 309 308 307 308 307 307 306 302 304 307 306 304 294 282 287 290 294 294 293 287 289 292 290 288 288 288 291 291 283 282 282 292 294 295 293 289 286 292 284 284 280
314 313 313 312 310 309 309 308 308 308 307 306 297 300 302 306 306 299 290 288 292 298 298 295 287 290 286 289 288 289 286 291 291 292 290 288 280 291 293 296 295 292 295 287 284 277 277
314 313 312 311 310 309 308 308 308 308 306 305 297 297 302 304 303 294 282 287 293 300 300 293 289 288 289 289 290 288 288 292 295 292 292 290 285 286 293 290 288 289 286 290 285 283 278
314 313 313 312 310 309 308 308 307 307 305 302 293 289 302 302 290 287 283 290 296 297 301 297 293 288 288 290 290 290 289 292 296 294 289 291 286 283 288 295 297 294 293 290 283 282 284
314 314 313 312 311 309 308 307 307 306 305 300 291 292 300 299 283 284 289 292 294 294 296 295 294 293 294 289 288 291 293 297 295 294 292 293 285 282 285 290 293 288 293 293 289 287 285
314 313 313 312 311 309 308 307 307 306 305 296 291 286 291 291 291 285 286 288 288 296 296 297 297 298 295 288 292 291 293 298 298 299 302 297 288 286 278 287 291 287 292 294 289 283 286
313 314 313 313 312 310 308 307 307 306 305 296 291 287 289 283 287 288 286 288 287 288 294 295 293 294 293 286 288 289 295 296 298 301 296 293 285 290 291 293 294 293 293 292 289 289 290
313 313 313 313 312 310 308 307 307 306 305 296 290 289 291 290 289 287 287 286 287 290 290 290 289 293 293 293 292 291 294 296 294 296 291 291 285 290 289 293 294 293 295 293 293 301 301
312 313 313 313 312 310 308 307 307 306 302 291 293 294 293 289 287 284 284 287 288 291 292 296 293 292 291 293 298 298 299 301 300 294 289 288 285 287 286 293 292 287 291 294 296 299 303
312 312 312 312 312 310 309 307 306 307 303 298 292 296 289 284 287 287 290 290 290 290 289 294 294 291 297 301 301 303 301 301 301 299 293 288 286 286 286 290 281 291 298 298 298 303 305
312 312 312 312 312 311 309 307 306 306 306 297 294 292 292 288 288 290 291 291 291 291 291 292 296 298 298 296 292 287 292 295 294 299 293 292 287 286 285 283 290 294 301 299 296 299 308
312 311 309 309 311 312 310 307 306 306 306 295 293 298 295 292 287 293 290 291 286 287 288 292 296 298 296 291 292 285 285 290 289 294 297 296 293 288 286 283 282 293 304 306 305 292 308
311 310 310 310 309 311 310 308 306 306 305 301 297 294 291 292 292 292 288 287 291 288 286 289 293 294 294 286 288 286 287 290 288 289 287 288 289 287 285 286 291 301 304 307 291 291 309
310 310 309 309 309 311 310 308 306 305 305 301 297 295 293 289 292 295 296 291 291 289 285 290 292 292 291 285 287 289 287 290 290 294 292 290 287 287 287 285 284 304 305 297 299 307 310
308 308 308 309 309 310 309 308 306 305 305 304 291 298 296 292 290 296 298 300 298 297 291 290 291 292 293 287 287 292 290 287 289 287 296 290 293 291 290 291 303 304 303 307 307 306 306
Wind_Speed
18 18 18 18 19 19 20 20 21 21 21 22 22 22 22 23 23 22 21 20 19 16 15 15 13 11 5 3 11 8 11 13 9 2 8 6 4 4 3 2 7 4 3 5 5 7 9
19 19 19 19 19 20 21 21 21 21 21 22 23 23 24 23 23 22 20 19 17 16 14 12 12 9 3 9 4 8 4 9 4 4 3 4 6 7 3 2 5 3 6 6 4 5 5
19 20 20 20 20 20 21 21 22 22 22 22 23 23 23 24 23 22 20 18 16 16 13 10 10 4 5 17 2 3 5 4 3 2 3 4 4 3 4 4 2 5 7 8 6 4 6
20 20 20 21 21 21 22 22 23 23 24 23 24 23 23 22 21 22 22 21 20 15 8 6 8 2 7 4 6 8 2 4 8 7 5 8 7 7 4 4 6 4 2 4 4 11 7
20 21 21 21 21 22 23 24 24 25 25 26 25 22 22 21 21 22 22 21 16 1 4 4 2 3 10 9 5 7 6 3 3 6 5 7 6 5 2 2 5 3 3 6 4 10 7
21 22 22 23 23 21 24 24 25 26 26 27 25 22 21 20 20 19 19 18 3 8 5 4 2 1 5 2 5 10 5 3 2 2 4 4 4 3 2 4 6 5 3 3 8 6 17
21 22 23 23 24 24 24 25 26 26 27 28 26 23 21 20 19 14 9 4 4 3 2 7 5 5 10 8 5 2 3 3 1 4 3 3 1 4 4 4 3 10 10 7 7 7 5
22 22 23 24 25 25 24 25 26 27 28 28 26 25 23 21 18 10 4 1 1 4 8 9 13 12 14 4 6 4 7 4 3 4 2 4 5 4 4 4 6 8 8 12 13 14 6
21 22 23 25 24 24 25 24 26 27 26 28 25 24 23 21 19 4 2 1 3 2 2 8 5 4 4 8 5 7 8 5 6 5 5 7 6 6 10 6 7 8 10 9 8 13 6
20 22 23 23 23 24 26 26 27 28 28 27 26 25 21 22 1 3 3 1 1 4 3 6 2 2 2 3 6 7 7 7 2 8 4 5 6 12 8 12 9 10 7 13 11 7 4
21 21 22 23 24 25 25 26 28 28 29 28 25 23 18 9 3 2 2 3 4 5 3 9 2 2 12 6 3 4 5 5 8 7 6 7 2 4 12 15 10 6 4 8 8 9 7
22 23 22 22 24 25 26 27 27 28 30 30 29 24 15 2 1 6 4 5 4 6 5 8 3 15 12 10 7 5 2 1 4 5 2 6 4 3 3 9 11 3 4 8 6 2 4
20 22 22 23 23 27 26 27 28 30 32 31 30 25 7 1 4 3 4 4 6 6 7 10 12 14 13 5 6 5 8 11 5 4 5 3 8 6 6 2 3 7 4 5 6 5 7
19 21 22 23 24 25 30 28 29 30 32 34 31 19 3 4 3 3 4 7 8 8 7 8 11 17 4 7 2 7 3 4 8 11 2 2 7 11 10 12 6 4 8 3 4 7 5
19 19 21 23 25 25 25 31 30 30 31 33 23 4 4 3 6 3 6 6 3 5 9 9 13 5 4 1 2 4 4 4 9 12 6 3 6 2 22 10 10 8 6 6 4 5 3
18 20 21 22 24 26 28 27 32 32 32 27 3 4 4 5 4 5 6 1 4 3 8 2 4 4 5 6 4 3 3 4 5 9 11 3 4 7 11 9 3 5 7 8 5 7 6
17 18 19 20 22 23 26 29 30 32 33 22 4 4 4 6 4 7 3 5 6 6 2 3 2 5 6 5 4 5 5 4 6 10 15 5 2 2 7 7 10 4 2 10 3 4 6
16 16 18 18 20 22 24 26 29 28 33 7 4 3 5 3 6 2 3 6 7 6 3 2 0 4 4 5 5 5 4 4 7 8 9 5 4 2 2 4 7 3 4 6 1 2 0
17 16 16 17 18 19 22 25 28 29 22 6 3 4 4 6 4 4 8 7 4 6 5 2 3 8 7 5 5 5 4 3 7 7 6 6 2 2 2 1 6 4 11 12 4 2 4
16 17 16 16 17 17 19 23 26 29 28 1 4 6 6 6 1 1 5 6 8 9 5 5 5 4 6 3 5 7 4 2 3 3 6 6 4 6 5 2 9 5 18 11 6 2 2
16 17 17 15 16 16 17 19 23 27 30 3 5 1 1 6 5 7 3 5 7 7 5 5 4 11 11 3 4 5 6 3 2 3 3 3 5 4 5 7 8 10 15 3 6 6 3
16 16 17 16 14 14 16 17 20 23 25 5 3 4 3 4 6 7 5 5 6 10 4 9 6 16 12 5 6 15 16 3 3 2 3 0 3 2 2 3 7 9 11 9 5 5 8
15 16 16 15 13 13 13 14 16 18 12 3 3 2 1 4 5 4 3 4 10 10 10 9 13 13 10 8 15 19 12 6 6 1 2 2 0 2 4 4 8 9 10 4 4 6 13
14 15 16 15 13 10 11 12 12 12 7 1 3 1 1 5 2 4 11 11 16 10 7 13 9 4 10 17 14 3 4 5 3 1 3 3 3 3 2 5 2 6 9 7 8 9 9
14 14 15 16 14 11 9 10 11 10 9 0 2 1 1 6 4 13 7 6 13 8 5 8 10 8 8 7 5 6 4 1 5 3 3 1 2 4 4 1 5 6 10 7 6 6 10
12 12 16 17 15 12 9 8 10 10 10 1 2 1 2 4 6 2 6 3 4 6 8 7 9 5 8 4 3 5 3 3 2 2 3 1 2 4 4 4 1 4 12 12 4 4 9
12 11 12 15 17 14 9 8 9 10 10 3 3 2 1 4 5 5 4 4 4 3 4 7 9 8 5 5 5 4 3 2 3 2 3 4 4 3 3 4 3 5 16 6 5 6 9
13 13 12 14 16 13 8 7 7 9 9 4 4 2 2 4 10 7 6 7 4 1 3 7 8 6 4 8 4 4 3 4 4 3 3 1 3 3 0 4 2 13 9 3 2 7 9
12 13 13 14 14 12 8 8 8 8 8 6 2 2 2 5 10 4 14 19 16 17 1 3 4 2 1 4 3 3 2 4 4 2 6 3 4 1 3 2 2 5 5 12 9 4 4
Wind_Direction
14 10 7 4 1 357 354 351 347 344 340 336 336 333 329 327 325 321 318 316 312 305 301 300 300 301 317 249 253 281 330 337 346 93 155 150 123 154 178 195 338 235 273 280 288 277 275
11 8 5 2 359 354 352 348 345 341 339 337 335 333 330 327 324 322 319 315 309 306 299 295 294 301 246 265 242 259 323 341 357 338 108 152 182 194 240 236 162 302 283 271 270 254 276
9 6 3 360 356 353 350 346 342 339 337 335 333 332 330 328 326 321 320 313 309 300 291 284 280 275 250 251 257 273 314 285 250 306 255 214 207 162 186 285 221 257 309 288 228 169 232
6 3 0 359 356 352 348 345 342 339 337 336 335 334 331 329 324 321 319 317 310 292 272 255 255 241 255 261 260 270 192 262 246 242 237 255 208 196 171 292 352 305 222 248 254 168 233
2 360 358 356 354 351 347 344 341 338 338 339 336 334 333 328 325 322 319 319 322 122 180 183 166 125 262 299 264 265 158 212 179 218 221 255 133 173 121 90 7 311 246 218 324 192 184
360 357 355 354 351 350 348 342 339 338 337 338 337 333 328 324 324 320 318 318 310 97 137 169 272 237 266 17 314 304 153 194 189 113 5 57 64 130 57 113 220 209 219 280 195 219 206
358 355 353 352 350 349 345 342 338 337 336 338 337 333 327 323 322 321 334 354 359 354 205 204 202 251 288 322 293 349 138 125 348 76 160 306 106 230 207 230 302 306 310 317 317 231 210
355 352 350 350 349 347 344 342 336 333 334 337 337 332 326 323 321 327 121 41 115 246 315 232 248 246 262 302 311 285 139 153 127 200 137 3 256 247 253 230 255 270 288 286 291 265 228
353 349 348 347 345 343 345 342 336 331 334 336 335 327 326 323 320 129 175 338 149 132 305 294 207 209 266 155 235 260 168 189 172 197 192 183 218 184 216 240 256 248 232 259 256 323 269
350 347 345 343 342 342 342 343 338 333 333 335 331 327 329 328 92 307 266 127 201 100 48 324 300 68 53 182 234 223 211 155 176 202 199 221 237 237 217 233 220 256 254 241 259 296 241
349 346 343 340 341 342 340 341 339 334 332 332 330 326 326 312 273 322 223 127 101 60 19 332 301 207 338 248 322 287 190 159 186 181 136 240 247 226 216 221 211 242 254 246 252 265 332
345 344 341 340 340 341 340 339 339 337 332 332 329 326 330 110 210 234 114 90 63 49 330 336 312 328 326 304 268 282 235 97 151 143 276 235 159 200 251 220 225 267 282 250 225 170 251
340 340 339 339 342 339 342 339 340 339 334 334 328 322 308 212 257 113 117 51 39 52 333 321 319 319 324 267 292 300 235 234 187 166 233 279 229 191 167 158 193 196 84 184 188 189 219
337 337 337 340 341 343 338 342 341 341 338 335 327 320 188 221 205 120 55 44 54 319 300 297 310 318 288 5 339 321 297 205 224 233 11 259 316 177 171 203 171 153 153 273 124 168 180
332 333 336 340 339 341 342 337 341 342 341 336 326 335 340 280 167 86 62 45 306 303 287 291 312 322 301 6 308 328 267 218 193 178 166 242 253 185 172 159 145 140 177 227 298 246 119
330 332 335 339 340 340 341 342 340 343 344 338 353 346 306 341 119 60 60 231 221 199 270 254 317 326 314 314 312 253 289 236 161 170 194 203 303 344 140 122 12 170 74 228 219 150 168
325 329 332 336 338 340 342 341 344 344 345 333 34 29 278 348 59 41 103 252 274 269 0 243 218 279 271 298 309 305 264 245 215 188 187 166 152 242 216 202 180 125 207 224 251 173 163
321 323 326 331 336 340 342 342 342 350 345 33 0 19 315 25 43 38 333 289 269 292 214 219 234 242 265 289 294 287 267 255 162 150 178 198 155 178 276 353 118 112 243 279 227 115 255
320 318 320 326 333 339 341 344 343 346 2 313 0 279 325 60 67 318 305 300 296 301 281 244 251 215 191 285 294 268 271 291 139 167 173 186 310 262 96 165 99 104 253 241 225 129 230
321 319 317 321 328 338 344 344 346 341 349 48 34 354 328 31 83 278 323 283 324 302 272 287 249 254 317 214 300 302 286 234 207 158 202 132 170 203 196 146 120 199 233 225 154 73 221
320 322 321 318 324 336 344 345 348 342 341 90 24 316 196 310 329 332 274 290 322 331 303 313 301 334 331 229 269 261 286 293 141 180 115 163 243 200 228 54 134 221 251 350 185 216 187
315 319 324 320 320 333 343 347 350 347 341 68 46 14 348 283 299 318 1 313 302 325 268 293 323 307 317 270 223 303 302 244 323 17 156 311 265 318 89 103 200 246 273 297 204 104 109
312 319 322 322 317 329 340 346 354 355 6 42 322 324 85 281 324 0 270 298 287 318 285 265 310 303 311 253 303 277 267 240 266 295 207 145 205 205 34 126 108 272 252 192 89 84 143
311 317 319 321 315 317 331 343 351 355 38 329 260 286 56 280 251 252 306 295 284 295 253 288 303 288 292 309 300 250 189 202 226 117 193 178 145 94 84 118 332 262 339 71 95 64 121
308 316 323 324 319 309 317 333 337 346 348 192 246 173 267 287 243 296 303 282 303 280 270 279 297 285 312 334 6 3 19 61 0 27 79 106 114 94 111 32 302 323 18 20 5 37 125
302 319 323 325 323 304 304 318 327 336 334 95 249 242 282 301 247 268 301 273 287 319 319 272 302 322 8 12 10 6 14 346 40 95 47 27 53 106 172 81 128 288 328 339 294 34 159
291 296 314 317 321 313 304 309 323 325 330 327 269 201 253 271 271 163 242 256 280 302 257 297 318 335 20 2 14 3 349 294 0 51 359 333 12 63 63 80 301 336 314 296 77 244 158
294 296 303 305 316 310 298 295 303 312 321 347 283 228 107 273 279 241 210 200 280 233 236 297 345 350 355 25 2 341 329 13 310 45 355 29 22 65 169 97 270 358 348 34 342 322 156
301 305 304 297 304 303 285 282 283 298 307 328 284 230 138 219 257 248 250 250 231 228 69 299 239 288 306 8 357 300 343 328 309 5 343 81 343 122 141 166 36 324 315 308 268 218 118